When you browse on this site, cookies collect data to enhance your experience and personalize the content and advertising you see.
Visit our Privacy Policy to learn more. By continuing to use the site, you agree to this use of cookies and data.
  • In Portugal
  • List of Countries
  • For 7 days
  • Water Temperature
  • Weather Map
  • Weather Widgets
  • user-avatar
    Login

    Hourly Weather Laszkar Gah

    Today, 8 December, Sunday

    Time Temperature Precipitation Wind Pressure Humidity
    00:00 +13°C° 0 mm 2 mps 697 mmHg 30%
    01:00 +13°C° 0 mm 2 mps 697 mmHg 30%
    02:00 +13°C° 0 mm 2 mps 697 mmHg 30%
    03:00 +13°C° 0 mm 2 mps 697 mmHg 30%
    04:00 +11°C° 0 mm 3 mps 697 mmHg 31%
    05:00 +11°C° 0 mm 3 mps 697 mmHg 31%
    06:00 +11°C° 0 mm 3 mps 697 mmHg 31%
    07:00 +11°C° 0 mm 3 mps 698 mmHg 32%
    08:00 +13°C° 0 mm 3 mps 698 mmHg 29%
    09:00 +14°C° 0 mm 3 mps 698 mmHg 25%
    10:00 +17°C° 0 mm 3 mps 698 mmHg 22%
    11:00 +18°C° 0 mm 3 mps 698 mmHg 20%
    12:00 +19°C° 0 mm 4 mps 698 mmHg 19%
    13:00 +20°C° 0 mm 4 mps 697 mmHg 17%
    14:00 +19°C° 0 mm 4 mps 697 mmHg 18%
    15:00 +19°C° 0 mm 4 mps 696 mmHg 20%
    16:00 +18°C° 0 mm 3 mps 696 mmHg 21%
    17:00 +18°C° 0 mm 4 mps 696 mmHg 22%
    18:00 +17°C° 0 mm 4 mps 696 mmHg 24%
    19:00 +15°C° 0 mm 4 mps 696 mmHg 25%
    20:00 +15°C° 0 mm 4 mps 696 mmHg 26%
    21:00 +15°C° 0 mm 4 mps 696 mmHg 27%
    22:00 +14°C° 0 mm 4 mps 696 mmHg 29%
    23:00 +14°C° 0 mm 4 mps 695 mmHg 29%

    Tomorrow, 9 December, Monday

    Time Temperature Precipitation Wind Pressure Humidity
    00:00 +14°C° 0 mm 4 mps 695 mmHg 29%
    01:00 +14°C° 0 mm 4 mps 695 mmHg 30%
    02:00 +14°C° 0 mm 4 mps 695 mmHg 30%
    03:00 +14°C° 0 mm 4 mps 695 mmHg 30%
    04:00 +14°C° 0 mm 3 mps 695 mmHg 30%
    05:00 +14°C° 0 mm 3 mps 695 mmHg 32%
    06:00 +13°C° 0 mm 4 mps 696 mmHg 34%
    07:00 +13°C° 0 mm 4 mps 696 mmHg 36%
    08:00 +14°C° 0 mm 3 mps 697 mmHg 36%
    09:00 +16°C° 0 mm 3 mps 697 mmHg 37%
    10:00 +18°C° 0 mm 3 mps 697 mmHg 37%
    11:00 +18°C° 0 mm 3 mps 697 mmHg 39%
    12:00 +19°C° 0 mm 3 mps 696 mmHg 40%
    13:00 +20°C° 0 mm 2 mps 696 mmHg 42%
    14:00 +20°C° 0 mm 2 mps 696 mmHg 43%
    15:00 +20°C° 0 mm 2 mps 695 mmHg 44%
    16:00 +20°C° 0 mm 2 mps 695 mmHg 45%
    17:00 +19°C° 0 mm 3 mps 695 mmHg 43%
    18:00 +18°C° 0 mm 3 mps 695 mmHg 42%
    19:00 +18°C° 0 mm 4 mps 696 mmHg 40%
    20:00 +17°C° 0 mm 4 mps 695 mmHg 41%
    21:00 +15°C° 0 mm 4 mps 695 mmHg 42%
    22:00 +15°C° 0 mm 5 mps 695 mmHg 43%
    23:00 +14°C° 0.4 mm 4 mps 695 mmHg 48%

    Day after tomorrow, 10 December, Tuesday

    Time Temperature Precipitation Wind Pressure Humidity
    00:00 +14°C° 0.4 mm 4 mps 695 mmHg 53%
    01:00 +13°C° 0.4 mm 4 mps 695 mmHg 59%
    02:00 +13°C° 0.6 mm 4 mps 694 mmHg 62%
    03:00 +12°C° 0.6 mm 4 mps 694 mmHg 66%
    04:00 +12°C° 0.6 mm 4 mps 694 mmHg 70%
    05:00 +12°C° 0.4 mm 4 mps 694 mmHg 70%
    06:00 +12°C° 0.4 mm 4 mps 695 mmHg 71%
    07:00 +12°C° 0.4 mm 4 mps 695 mmHg 71%
    08:00 +13°C° 0.1 mm 4 mps 695 mmHg 67%
    09:00 +14°C° 0.1 mm 4 mps 696 mmHg 62%
    10:00 +17°C° 0.1 mm 4 mps 696 mmHg 58%
    11:00 +17°C° 0 mm 3 mps 696 mmHg 55%
    12:00 +18°C° 0 mm 2 mps 695 mmHg 53%
    13:00 +19°C° 0 mm 2 mps 695 mmHg 50%
    14:00 +20°C° 0 mm 1 mps 694 mmHg 50%
    15:00 +20°C° 0 mm 1 mps 694 mmHg 49%
    16:00 +18°C° 0 mm 0 mps 694 mmHg 49%
    17:00 +19°C° 0 mm 1 mps 694 mmHg 51%
    18:00 +19°C° 0 mm 1 mps 694 mmHg 53%
    19:00 +18°C° 0 mm 1 mps 694 mmHg 55%
    20:00 +18°C° 0 mm 1 mps 694 mmHg 57%
    21:00 +15°C° 0 mm 0 mps 694 mmHg 58%
    22:00 +15°C° 0 mm 0 mps 694 mmHg 60%
    23:00 +14°C° 0 mm 0 mps 693 mmHg 61%

    11 December, Wednesday

    Time Temperature Precipitation Wind Pressure Humidity
    00:00 +14°C° 0 mm 0 mps 693 mmHg 63%
    01:00 +13°C° 0 mm 0 mps 693 mmHg 65%
    02:00 +13°C° 0 mm 0 mps 693 mmHg 64%
    03:00 +13°C° 0 mm 0 mps 692 mmHg 64%
    04:00 +14°C° 0 mm 1 mps 692 mmHg 63%
    05:00 +14°C° 0 mm 1 mps 692 mmHg 63%
    06:00 +14°C° 0 mm 1 mps 693 mmHg 63%
    07:00 +14°C° 0 mm 2 mps 693 mmHg 63%
    08:00 +15°C° 0 mm 1 mps 693 mmHg 59%
    09:00 +16°C° 0 mm 1 mps 693 mmHg 54%
    10:00 +18°C° 0 mm 1 mps 694 mmHg 50%
    11:00 +17°C° 0.1 mm 2 mps 693 mmHg 50%
    12:00 +15°C° 0.1 mm 4 mps 693 mmHg 51%
    13:00 +15°C° 0.1 mm 5 mps 692 mmHg 51%
    14:00 +14°C° 0.2 mm 6 mps 692 mmHg 57%
    15:00 +12°C° 0.2 mm 7 mps 691 mmHg 63%
    16:00 +11°C° 0.2 mm 7 mps 691 mmHg 69%
    17:00 +11°C° 0.6 mm 6 mps 691 mmHg 72%
    18:00 +10°C° 0.6 mm 5 mps 691 mmHg 75%
    19:00 +11°C° 0.6 mm 4 mps 691 mmHg 77%
    20:00 +11°C° 0.1 mm 4 mps 691 mmHg 78%
    21:00 +11°C° 0.1 mm 4 mps 692 mmHg 78%
    22:00 +11°C° 0.1 mm 3 mps 692 mmHg 78%
    23:00 +11°C° 0 mm 3 mps 691 mmHg 78%

    12 December, Thursday

    Time Temperature Precipitation Wind Pressure Humidity
    00:00 +10°C° 0 mm 2 mps 691 mmHg 78%
    01:00 +10°C° 0 mm 2 mps 691 mmHg 78%
    02:00 +10°C° 0 mm 2 mps 691 mmHg 77%
    03:00 +11°C° 0 mm 1 mps 691 mmHg 76%
    04:00 +12°C° 0 mm 1 mps 691 mmHg 75%
    05:00 +12°C° 0 mm 1 mps 691 mmHg 75%
    06:00 +12°C° 0 mm 1 mps 691 mmHg 74%
    07:00 +11°C° 0 mm 0 mps 692 mmHg 73%
    08:00 +12°C° 0.1 mm 1 mps 692 mmHg 71%
    09:00 +13°C° 0.1 mm 1 mps 692 mmHg 69%
    10:00 +13°C° 0.1 mm 1 mps 692 mmHg 66%
    11:00 +14°C° 0 mm 2 mps 692 mmHg 62%
    12:00 +15°C° 0 mm 2 mps 692 mmHg 57%
    13:00 +14°C° 0 mm 3 mps 691 mmHg 53%
    14:00 +14°C° 0 mm 4 mps 691 mmHg 52%
    15:00 +14°C° 0 mm 4 mps 691 mmHg 51%
    16:00 +15°C° 0 mm 4 mps 691 mmHg 50%
    17:00 +14°C° 0 mm 5 mps 692 mmHg 53%
    18:00 +13°C° 0 mm 5 mps 692 mmHg 56%
    19:00 +12°C° 0 mm 5 mps 692 mmHg 59%
    20:00 +12°C° 0 mm 4 mps 692 mmHg 60%
    21:00 +11°C° 0 mm 4 mps 692 mmHg 61%
    22:00 +11°C° 0 mm 4 mps 693 mmHg 62%
    23:00 +11°C° 0 mm 4 mps 693 mmHg 62%

    13 December, Friday

    Time Temperature Precipitation Wind Pressure Humidity
    00:00 +10°C° 0 mm 4 mps 692 mmHg 62%
    01:00 +10°C° 0 mm 4 mps 692 mmHg 62%
    02:00 +9°C° 0 mm 3 mps 692 mmHg 61%
    03:00 +9°C° 0 mm 3 mps 692 mmHg 61%
    04:00 +9°C° 0 mm 3 mps 692 mmHg 61%
    05:00 +8°C° 0 mm 2 mps 693 mmHg 63%
    06:00 +8°C° 0 mm 2 mps 693 mmHg 65%
    07:00 +9°C° 0 mm 1 mps 693 mmHg 66%
    08:00 +10°C° 0 mm 1 mps 694 mmHg 60%
    09:00 +11°C° 0 mm 1 mps 694 mmHg 53%
    10:00 +13°C° 0 mm 1 mps 695 mmHg 46%
    11:00 +13°C° 0 mm 1 mps 694 mmHg 42%
    12:00 +14°C° 0 mm 1 mps 694 mmHg 37%
    13:00 +15°C° 0 mm 1 mps 694 mmHg 32%
    14:00 +15°C° 0 mm 1 mps 694 mmHg 31%
    15:00 +15°C° 0 mm 1 mps 694 mmHg 31%
    16:00 +15°C° 0 mm 1 mps 693 mmHg 30%
    17:00 +14°C° 0 mm 2 mps 694 mmHg 33%
    18:00 +13°C° 0 mm 3 mps 694 mmHg 36%
    19:00 +12°C° 0 mm 4 mps 694 mmHg 39%
    20:00 +12°C° 0 mm 4 mps 694 mmHg 41%
    21:00 +10°C° 0 mm 5 mps 694 mmHg 42%
    22:00 +10°C° 0 mm 5 mps 694 mmHg 44%
    23:00 +10°C° 0 mm 5 mps 694 mmHg 45%
    Show more